Wind_Speed
2 3 6 7 7 9 7 11 15 15 15 15 16 15 15 15 16 20 21 18 21 21 21 22 24 24 25 27 27 25 28 30 27 28 28 25 25 31 34 27 20 20 16
4 6 7 7 6 8 10 10 13 14 15 14 13 13 14 16 19 18 19 22 25 19 21 22 24 20 21 26 27 28 29 28 26 27 25 25 23 29 32 30 21 17 13
3 7 7 8 6 7 9 11 11 13 15 17 16 16 16 17 18 21 22 27 30 17 19 22 22 19 27 27 27 25 25 28 27 25 26 24 22 26 33 30 22 16 10
7 5 6 6 9 9 8 13 14 15 15 16 16 15 14 15 23 25 29 29 22 12 19 20 20 19 23 24 23 24 26 24 24 27 24 25 26 23 29 33 28 19 13
2 4 6 8 8 10 11 13 13 13 15 16 16 15 18 23 21 27 25 25 20 18 18 19 19 24 22 21 23 26 26 23 25 26 25 24 25 23 26 31 30 24 14
4 4 4 7 8 9 12 12 15 15 19 17 16 17 21 25 26 26 26 25 20 20 22 24 24 21 20 22 25 26 25 22 27 27 23 22 24 23 23 29 28 28 22
3 4 6 8 9 10 12 14 15 17 18 18 17 18 23 26 27 27 26 24 23 24 26 27 28 27 26 26 26 29 29 24 18 21 20 18 22 21 22 25 24 27 18
4 5 6 8 10 12 13 13 16 17 17 19 19 19 25 29 26 27 29 28 23 31 28 28 27 26 27 27 28 29 31 26 21 21 20 18 19 18 16 17 19 24 13
4 6 7 8 11 12 12 15 16 16 18 18 18 21 23 26 26 24 23 30 25 31 31 32 26 26 24 26 28 33 28 22 20 23 23 13 13 13 13 14 16 20 14
5 6 7 9 11 13 13 15 17 16 17 18 19 20 24 21 13 17 26 31 36 38 37 30 26 29 29 32 34 27 23 24 23 23 12 7 10 10 8 10 13 16 16
5 5 7 10 12 12 14 17 16 17 19 23 25 24 15 16 19 25 29 35 38 36 32 30 28 27 26 23 24 21 19 20 20 18 17 13 10 6 3 6 10 10 13
5 6 8 10 12 11 17 15 17 19 16 17 18 18 16 22 25 27 29 29 29 28 27 26 22 27 24 21 18 18 16 14 13 17 17 12 12 10 9 7 7 9 8
6 8 10 11 12 13 15 15 15 16 15 19 19 17 19 21 23 26 31 29 27 26 27 22 22 26 23 20 18 17 13 14 14 17 15 12 11 9 6 7 6 7 4
7 9 10 9 13 11 15 14 16 16 17 15 14 16 19 19 20 32 30 29 26 25 27 27 22 19 16 16 16 16 15 13 15 15 13 11 11 8 6 7 6 3 9
8 9 10 12 10 13 14 16 18 18 18 14 17 20 21 24 24 30 26 29 26 25 26 24 25 25 24 20 16 13 11 13 14 14 12 9 9 8 6 4 5 1 1
9 9 11 11 11 14 15 17 19 20 13 16 20 24 26 24 26 29 24 28 26 25 24 24 24 25 24 22 20 18 12 12 13 13 11 8 7 8 8 3 5 3 1
10 11 12 12 14 13 15 14 17 17 18 18 23 24 29 28 27 24 25 28 25 25 25 25 24 24 23 22 20 19 17 13 10 10 9 6 5 8 7 4 5 4 2
11 11 11 13 11 13 15 16 16 16 14 15 17 26 26 24 25 18 22 25 28 30 28 26 25 25 24 22 21 20 17 15 11 10 7 4 5 8 6 4 4 4 2
9 9 17 9 10 13 14 15 15 13 15 17 27 27 24 25 15 15 21 24 25 32 33 29 26 26 25 23 21 19 17 15 13 10 7 4 4 7 6 4 3 1 1
9 11 15 12 13 13 14 14 15 15 17 23 23 26 29 25 17 19 24 28 31 32 35 31 28 26 25 23 22 20 18 15 13 11 8 6 5 6 5 3 0 1 1
7 11 11 12 12 13 14 15 12 16 19 21 19 25 23 19 19 20 20 24 30 32 34 32 30 27 24 23 23 22 20 18 15 13 11 9 9 8 5 3 1 3 3
9 9 10 11 12 12 13 11 13 17 18 20 23 23 23 21 20 20 20 24 29 31 32 30 29 27 25 24 24 23 22 20 17 14 12 11 10 9 6 5 4 5 4
8 8 10 11 11 14 12 12 13 17 16 19 22 23 27 27 24 23 22 22 28 31 31 30 30 28 27 26 25 24 25 23 20 16 13 11 9 9 10 9 8 7 7
9 9 10 11 12 12 12 11 16 16 16 18 23 26 27 29 27 25 24 24 27 30 31 31 30 29 28 27 26 24 23 21 18 14 12 11 8 8 11 12 11 10 10
7 9 10 11 12 12 12 12 17 14 15 18 25 24 26 31 30 28 26 26 30 32 33 32 31 30 28 26 25 22 19 16 13 12 6 2 5 8 10 12 14 12 14
8 9 10 11 12 12 13 13 16 15 16 20 22 23 26 31 31 29 28 27 30 32 33 33 32 30 28 26 24 20 14 15 15 14 14 13 7 8 12 14 15 14 15
Wind_Direction
66 301 320 319 312 329 319 323 336 343 351 347 344 333 329 331 320 313 318 314 303 313 317 310 308 309 311 315 322 326 319 324 319 319 323 334 336 332 337 336 333 332 330
301 308 318 326 338 324 341 337 336 343 346 336 331 329 329 325 323 315 304 302 316 308 319 302 309 317 317 317 319 322 314 320 327 319 326 340 334 330 332 340 338 344 336
280 304 333 356 348 323 318 330 335 328 348 350 349 350 343 344 313 308 309 315 317 313 324 312 315 310 318 320 319 319 318 319 321 327 326 334 330 333 332 343 351 348 351
325 336 351 297 330 343 326 309 332 351 347 344 348 347 335 326 323 317 322 324 327 331 318 313 318 317 326 317 316 322 322 318 319 324 325 324 326 334 332 345 346 357 356
331 301 303 342 324 320 331 333 329 329 333 337 339 342 317 328 319 346 350 348 344 333 325 322 317 310 311 310 315 320 327 324 325 320 320 318 325 335 340 342 344 348 358
312 341 331 327 325 323 328 330 326 317 323 337 331 327 325 330 336 345 353 351 342 338 330 321 316 317 312 309 308 314 324 323 325 317 314 321 327 332 331 337 341 349 346
17 338 319 325 324 322 319 324 327 321 322 324 322 324 319 328 329 328 336 348 347 333 328 328 323 319 312 312 313 313 320 307 304 322 326 314 319 324 327 331 336 339 329
340 320 322 320 319 320 328 325 315 320 321 319 323 321 316 326 324 321 332 337 331 333 329 327 325 316 316 316 316 318 321 316 301 304 316 304 306 309 314 329 326 332 324
318 317 315 320 320 324 323 316 324 327 326 332 322 315 308 326 312 315 325 331 332 322 322 324 320 318 311 307 311 314 318 316 317 312 286 283 293 315 306 316 331 344 345
293 309 321 324 322 319 331 323 322 324 325 313 321 329 331 322 321 325 333 334 331 328 327 327 321 316 311 309 311 316 312 314 312 329 319 289 308 321 320 333 337 346 349
321 316 326 318 316 336 308 320 333 332 330 332 331 334 321 357 351 343 336 330 326 327 329 329 325 320 316 317 318 320 310 313 320 329 325 305 307 309 322 334 337 332 344
327 335 319 321 320 317 326 333 335 335 340 331 333 346 343 346 336 327 325 335 341 344 343 345 348 343 340 342 334 323 335 328 327 326 315 314 306 292 300 311 344 332 337
341 327 326 323 328 315 330 327 339 330 332 341 340 335 328 327 324 323 337 343 345 350 345 342 341 353 354 348 333 336 335 326 325 326 331 325 312 320 303 298 283 315 299
326 325 323 331 325 336 338 337 322 321 314 321 328 334 338 335 330 339 342 343 345 350 351 358 349 335 336 338 339 340 333 327 329 334 334 336 347 339 325 326 322 8 11
329 350 328 315 332 342 336 330 328 315 312 321 341 351 346 345 340 342 342 343 340 348 346 350 354 357 359 356 347 338 341 329 333 335 339 341 353 348 348 351 350 305 4
345 330 334 345 343 337 335 342 336 324 327 351 354 348 345 342 341 343 344 346 347 342 343 351 352 354 352 351 350 348 336 326 324 329 333 330 349 343 354 356 351 348 299
327 323 331 332 328 328 341 340 334 335 352 357 348 337 338 334 338 335 342 344 349 351 353 352 348 349 348 348 342 344 343 344 327 322 322 323 335 340 338 351 346 335 302
325 347 331 329 323 334 335 337 338 342 344 344 336 335 335 332 332 335 337 339 341 353 353 349 344 343 343 340 340 340 336 341 340 324 323 334 339 331 324 336 330 350 3
332 327 335 343 351 335 341 338 342 342 350 339 336 334 334 327 344 338 329 335 345 352 352 349 345 340 339 336 334 333 332 330 328 329 323 306 299 310 321 311 323 338 80
323 320 350 346 337 341 344 342 346 347 351 338 340 333 334 343 352 341 341 344 344 345 346 344 345 342 339 336 333 331 324 319 316 309 305 290 261 276 306 311 334 136 88
339 336 338 347 341 343 342 344 352 359 348 344 336 336 340 346 342 341 342 337 332 337 341 340 342 343 341 337 334 332 329 321 310 302 293 284 274 266 258 256 179 121 99
2 334 336 338 340 342 334 337 1 354 348 342 337 348 352 352 346 342 338 335 330 339 341 341 344 346 342 339 335 331 328 326 321 304 291 282 267 255 248 223 189 157 150
349 341 341 342 341 346 348 344 359 352 347 342 345 353 1 359 354 346 339 335 335 342 344 348 347 344 343 338 335 332 328 326 318 307 293 276 260 245 230 218 203 182 168
349 344 343 343 345 348 351 351 1 352 345 346 344 351 360 1 356 350 347 345 343 346 352 350 349 347 341 340 339 339 337 331 325 312 289 274 256 228 216 209 200 191 181
347 348 349 348 348 347 348 352 355 352 352 346 347 354 349 358 356 354 351 355 353 353 349 350 351 351 348 347 350 356 356 356 357 5 359 296 219 205 197 191 189 182 174
356 351 353 352 351 349 350 352 352 349 350 342 349 350 349 356 354 353 352 356 354 351 350 351 354 357 355 357 2 5 21 43 45 53 60 64 87 149 173 174 171 168 168
Height
1533 1533 1532 1531 1530 1529 1528 1526 1524 1521 1519 1517 1515 1513 1511 1508 1506 1502 1499 1496 1492 1489 1486 1483 1479 1476 1473 1470 1466 1463 1458 1454 1446 1440 1437 1432 1428 1423 1417 1409 1403 1398 1393
1532 1531 1530 1529 1528 1528 1527 1525 1523 1520 1518 1516 1513 1511 1509 1505 1502 1498 1495 1491 1488 1484 1482 1479 1476 1472 1468 1465 1462 1458 1454 1451 1445 1438 1434 1430 1426 1421 1416 1408 1401 1396 1391
1531 1530 1529 1528 1528 1527 1526 1523 1522 1519 1517 1514 1512 1509 1507 1504 1498 1496 1492 1488 1484 1481 1478 1475 1472 1469 1465 1461 1458 1455 1451 1446 1442 1437 1431 1428 1425 1419 1413 1408 1400 1395 1390
1529 1529 1528 1527 1526 1525 1524 1521 1519 1517 1516 1513 1511 1508 1505 1501 1497 1493 1489 1483 1479 1477 1475 1472 1469 1465 1461 1457 1454 1451 1448 1443 1439 1434 1429 1426 1422 1418 1413 1406 1396 1393 1389
1528 1528 1527 1526 1525 1524 1522 1520 1519 1517 1514 1512 1510 1507 1502 1500 1496 1492 1487 1482 1478 1475 1473 1469 1466 1463 1458 1454 1451 1448 1444 1440 1436 1432 1427 1424 1420 1416 1411 1407 1401 1393 1388
1527 1526 1526 1525 1524 1523 1521 1519 1517 1516 1513 1510 1508 1505 1501 1498 1494 1491 1486 1481 1477 1474 1469 1466 1462 1459 1454 1450 1447 1445 1443 1438 1434 1429 1425 1421 1418 1415 1411 1407 1402 1395 1389
1526 1527 1526 1525 1523 1522 1520 1518 1516 1513 1511 1508 1506 1503 1498 1495 1491 1488 1484 1479 1476 1472 1468 1463 1458 1454 1450 1446 1442 1439 1436 1433 1430 1426 1422 1419 1416 1414 1410 1406 1402 1398 1392
1526 1526 1525 1524 1522 1520 1518 1517 1514 1512 1509 1507 1503 1501 1496 1493 1488 1485 1481 1477 1473 1469 1464 1459 1455 1450 1446 1441 1437 1433 1430 1427 1424 1421 1418 1416 1414 1411 1409 1406 1401 1396 1391
1526 1525 1524 1522 1521 1519 1517 1515 1512 1510 1507 1504 1502 1498 1493 1490 1486 1482 1478 1473 1469 1465 1460 1456 1451 1446 1442 1437 1432 1428 1425 1422 1419 1416 1413 1412 1411 1408 1406 1403 1401 1396 1390
1524 1523 1522 1521 1520 1517 1515 1513 1511 1508 1505 1502 1498 1494 1489 1487 1484 1480 1475 1469 1464 1459 1453 1449 1446 1442 1437 1432 1428 1423 1420 1417 1414 1410 1408 1407 1406 1404 1402 1401 1399 1396 1392
1522 1521 1521 1520 1518 1516 1513 1511 1508 1505 1502 1499 1496 1492 1490 1485 1480 1477 1473 1467 1461 1454 1449 1444 1440 1436 1431 1427 1424 1420 1416 1414 1411 1408 1405 1404 1402 1400 1399 1398 1398 1396 1393
1521 1521 1520 1519 1516 1515 1512 1509 1507 1504 1502 1498 1496 1494 1490 1485 1479 1475 1471 1466 1459 1452 1446 1441 1437 1432 1427 1423 1420 1416 1414 1411 1408 1406 1404 1401 1399 1397 1397 1396 1395 1393 1393
1521 1520 1519 1518 1516 1514 1511 1508 1506 1504 1501 1498 1495 1491 1487 1483 1478 1473 1469 1463 1457 1451 1447 1441 1435 1430 1426 1422 1418 1415 1411 1409 1407 1404 1401 1399 1397 1395 1395 1394 1393 1392 1390
1521 1519 1518 1516 1514 1512 1509 1507 1505 1502 1498 1496 1493 1489 1484 1480 1476 1471 1466 1460 1455 1450 1445 1439 1434 1430 1425 1421 1417 1414 1411 1408 1405 1403 1400 1398 1396 1395 1393 1393 1391 1391 1390
1519 1519 1518 1515 1512 1510 1508 1505 1502 1499 1496 1493 1490 1487 1482 1478 1475 1470 1465 1459 1453 1449 1443 1439 1433 1427 1422 1418 1415 1412 1409 1407 1404 1402 1399 1397 1396 1394 1393 1392 1391 1391 1390
1519 1518 1516 1513 1511 1509 1507 1504 1500 1496 1493 1491 1486 1484 1481 1477 1473 1469 1464 1459 1453 1448 1443 1436 1431 1426 1422 1417 1414 1410 1407 1405 1402 1400 1398 1396 1395 1394 1392 1392 1391 1390 1390
1519 1518 1515 1513 1511 1508 1506 1503 1499 1494 1492 1488 1485 1482 1479 1475 1471 1467 1463 1457 1453 1447 1441 1435 1430 1425 1421 1417 1412 1409 1405 1403 1400 1398 1397 1395 1394 1393 1392 1391 1391 1390 1389
1518 1516 1515 1512 1510 1508 1506 1503 1500 1496 1493 1490 1486 1482 1478 1473 1469 1465 1461 1456 1451 1445 1439 1433 1429 1424 1419 1415 1410 1406 1403 1400 1398 1396 1394 1394 1393 1392 1391 1390 1390 1389 1389
1518 1517 1514 1510 1508 1507 1505 1502 1499 1494 1492 1489 1485 1480 1476 1471 1466 1463 1459 1455 1449 1443 1437 1432 1426 1421 1417 1412 1408 1404 1400 1397 1395 1393 1392 1391 1391 1390 1390 1389 1389 1389 1388
1518 1516 1513 1510 1508 1507 1504 1502 1498 1493 1492 1488 1484 1478 1472 1467 1464 1461 1457 1453 1448 1442 1436 1430 1424 1419 1413 1408 1403 1399 1396 1394 1392 1390 1389 1388 1388 1387 1387 1387 1387 1387 1387
1516 1515 1513 1510 1509 1507 1505 1502 1497 1494 1492 1488 1483 1478 1472 1467 1464 1460 1456 1452 1446 1440 1434 1427 1421 1415 1410 1404 1399 1395 1391 1389 1387 1385 1384 1384 1384 1384 1385 1385 1386 1386 1387
1515 1516 1514 1511 1509 1507 1504 1502 1497 1495 1492 1487 1482 1477 1471 1467 1462 1458 1455 1450 1444 1439 1432 1425 1418 1412 1406 1401 1396 1391 1387 1383 1381 1379 1378 1378 1379 1380 1381 1383 1384 1386 1387
1517 1515 1514 1511 1509 1507 1504 1501 1498 1495 1492 1486 1481 1476 1471 1466 1461 1456 1452 1448 1442 1436 1429 1422 1415 1409 1404 1398 1392 1387 1381 1377 1374 1372 1371 1372 1373 1375 1377 1380 1382 1384 1387
1517 1516 1513 1511 1509 1507 1504 1500 1498 1496 1492 1486 1481 1476 1472 1467 1461 1456 1450 1446 1440 1434 1427 1420 1413 1407 1399 1392 1387 1382 1376 1372 1368 1365 1365 1365 1367 1370 1372 1375 1378 1382 1385
1517 1515 1514 1511 1509 1507 1505 1501 1499 1496 1492 1487 1482 1478 1473 1467 1461 1455 1449 1444 1438 1432 1426 1418 1411 1405 1395 1389 1383 1378 1374 1370 1366 1363 1361 1360 1362 1365 1368 1371 1376 1379 1383
1518 1516 1514 1512 1510 1507 1505 1502 1500 1496 1491 1487 1482 1478 1473 1467 1461 1455 1449 1443 1437 1431 1424 1417 1410 1403 1393 1387 1382 1378 1374 1371 1368 1365 1363 1362 1362 1363 1366 1370 1374 1379 1383